This is the latest recevied weather packets stored in our database for station/object OM7FX-15. If no packets are shown the sender has not sent any weather packets the latest 10 day(s).
| Time | Temp. | Humidity | Pressure | Rain* | Wind** | Luminosity | Snow |
|---|---|---|---|---|---|---|---|
| 1777123894 | 22.78° C | 30% | 964.6 hPa | - | - | - | - |
| 1777122994 | 22.78° C | 30% | 964.7 hPa | - | - | - | - |
| 1777122094 | 22.78° C | 42% | 964.8 hPa | - | - | - | - |
| 1777121194 | 22.78° C | 45% | 964.8 hPa | - | - | - | - |
| 1777120294 | 22.78° C | 46% | 964.9 hPa | - | - | - | - |
| 1777119394 | 22.78° C | 46% | 965.1 hPa | - | - | - | - |
| 1777118494 | 22.22° C | 45% | 965.1 hPa | - | - | - | - |
| 1777117594 | 22.22° C | 46% | 965.3 hPa | - | - | - | - |
| 1777116694 | 22.22° C | 46% | 965.2 hPa | - | - | - | - |
| 1777115794 | 22.22° C | 46% | 965.4 hPa | - | - | - | - |
| 1777114893 | 22.22° C | 46% | 965.4 hPa | - | - | - | - |
| 1777113993 | 22.22° C | 46% | 965.5 hPa | - | - | - | - |
| 1777113093 | 22.22° C | 46% | 965.7 hPa | - | - | - | - |
| 1777112193 | 22.22° C | 45% | 965.8 hPa | - | - | - | - |
| 1777111293 | 22.22° C | 45% | 965.9 hPa | - | - | - | - |
| 1777110392 | 22.22° C | 45% | 966 hPa | - | - | - | - |
| 1777109492 | 22.22° C | 45% | 966.1 hPa | - | - | - | - |
| 1777108592 | 22.22° C | 45% | 966.2 hPa | - | - | - | - |
| 1777107692 | 22.22° C | 45% | 966.4 hPa | - | - | - | - |
| 1777106792 | 22.22° C | 45% | 966.5 hPa | - | - | - | - |
| 1777105892 | 22.22° C | 46% | 966.7 hPa | - | - | - | - |
| 1777104992 | 22.22° C | 48% | 966.9 hPa | - | - | - | - |
| 1777104092 | 22.22° C | 47% | 967 hPa | - | - | - | - |
| 1777103192 | 22.22° C | 45% | 967.2 hPa | - | - | - | - |
| 1777102291 | 22.22° C | 44% | 967.2 hPa | - | - | - | - |
* Rain since midnight (hover to see other rain measurements)
** Current wind speed in m/s (hover to see current wind gust speed)